Location: Nairn
(57.5833°N, 3.8667°W)
Time: 10:44:23
(UTC+00:00)

N. Korean satellite - Pass Details

Date: 31 October 2020
Orbit: 452 x 504 km, 97.2° (Epoch: 25 November)

Event Time Altitude Azimuth Distance (km) Brightness Sun altitude
Rises 06:43:07 0° 10° (N) 2,489 10.1 -6.3°
Reaches altitude 10° 06:45:14 10° 3° (N) 1,607 9.1 -6.0°
Maximum altitude 06:48:28 40° 293° (WNW) 691 6.9 -5.6°
Drops below altitude 10° 06:51:41 10° 223° (SW) 1,593 8.9 -5.2°
Sets 06:53:47 0° 215° (SW) 2,464 10.0 -4.9°
